Minot, ND

10:26 PM CDT on August 31, 2016 (GMT -0500)
Minot International

Weather History for KMOT - October, 2013

Change the Weather History Date:

Wednesday, October 2, 2013

  Actual Average Record
Temperature  
Mean Temperature 54 °F 51 °F  
Max Temperature 65 °F 62 °F 92 °F (1997)
Min Temperature 43 °F 39 °F 15 °F (1918)
Degree Days  
Heating Degree Days 11 14  
Month to date heating degree days 21 28  
Since 1 July heating degree days 212 348  
Cooling Degree Days 0 0  
Month to date cooling degree days 0 0  
Year to date cooling degree days 421 444  
Growing Degree Days 4 (Base 50)    
Moisture  
Dew Point 34 °F    
Average Humidity 45    
Maximum Humidity 65    
Minimum Humidity 25    
Precipitation  
Precipitation T in 0.05 in 1.04 in (1971)
Month to date precipitation T 0.09  
Year to date precipitation 22.34 14.99  
Sea Level Pressure  
Sea Level Pressure 29.97 in    
Wind  
Wind Speed 8 mph (West)    
Max Wind Speed 15 mph    
Max Gust Speed 20 mph    
Visibility 10 miles    
Events      
T = Trace of Precipitation, MM = Missing Value Source: NWS Daily Summary

Daily Weather History Graph

Daily Weather History Graph

Search for Another Location

Airport or City:

Trip Planner

Search our weather history database for the weather conditions in past years. The results will help you decide how hot, cold, wet, or windy it might be!

Date:

Astronomy

Oct. 02, 2013 Rise Set
Actual Time 7:46 AM CDT 7:21 PM CDT
Civil Twilight 7:15 AM CDT 7:52 PM CDT
Nautical Twilight 6:38 AM CDT 8:28 PM CDT
Astronomical Twilight 6:02 AM CDT 9:05 PM CDT
Moon 5:12 AM CDT (10/2) 6:04 PM CDT (10/2)
Length of Visible Light 12h 37m
Length of Day
11h 35m
Waning Crescent, 6% of the Moon is Illuminated
Oct 2
Waning Crescent
Oct 4
New
Oct 11
First Quarter
Oct 18
Full
Oct 26
Last Quarter

Hourly Weather History & Observations

Time (CDT) Temp. Windchill Dew Point Humidity Pressure Visibility Wind Dir Wind Speed Gust Speed Precip Events Conditions
12:54 AM 46.0 °F 40.6 °F 35.1 °F 66% 29.91 in 10.0 mi SSW 11.5 mph - N/A   Clear
1:54 AM 46.0 °F 41.0 °F 35.1 °F 66% 29.90 in 10.0 mi SW 10.4 mph - N/A   Clear
2:54 AM 46.0 °F 41.0 °F 34.0 °F 63% 29.91 in 10.0 mi SW 10.4 mph - N/A   Clear
3:54 AM 46.9 °F - 35.1 °F 63% 29.91 in 10.0 mi SW 9.2 mph - N/A   Clear
4:54 AM 52.0 °F - 35.1 °F 53% 29.90 in 10.0 mi WSW 8.1 mph - N/A   Mostly Cloudy
5:54 AM 52.0 °F - 34.0 °F 50% 29.91 in 10.0 mi WSW 6.9 mph - N/A   Mostly Cloudy
6:54 AM 52.0 °F - 35.1 °F 53% 29.94 in 10.0 mi SW 6.9 mph - N/A   Overcast
7:54 AM 53.1 °F - 36.0 °F 52% 29.94 in 10.0 mi WSW 5.8 mph - 0.00 in   Overcast
8:54 AM 53.1 °F - 37.9 °F 57% 29.96 in 10.0 mi West 5.8 mph - N/A   Overcast
9:54 AM 55.9 °F - 35.1 °F 45% 29.99 in 10.0 mi West 8.1 mph - N/A   Overcast
10:54 AM 57.0 °F - 37.0 °F 47% 30.00 in 10.0 mi WSW 8.1 mph - 0.00 in   Overcast
11:54 AM 55.0 °F - 39.0 °F 55% 29.99 in 10.0 mi NNW 5.8 mph - 0.00 in   Overcast
12:54 PM 60.1 °F - 36.0 °F 41% 30.00 in 10.0 mi WNW 8.1 mph - N/A   Mostly Cloudy
1:54 PM 63.0 °F - 32.0 °F 31% 29.99 in 10.0 mi WNW 9.2 mph - N/A   Clear
2:54 PM 64.0 °F - 28.9 °F 27% 29.98 in 10.0 mi WSW 8.1 mph - N/A   Clear
3:54 PM 64.9 °F - 28.9 °F 26% 29.96 in 10.0 mi West 10.4 mph 16.1 mph N/A   Clear
4:54 PM 64.9 °F - 28.0 °F 25% 29.95 in 10.0 mi West 13.8 mph - N/A   Clear
5:54 PM 63.0 °F - 27.0 °F 26% 29.96 in 10.0 mi West 13.8 mph - N/A   Clear
6:54 PM 57.9 °F - 30.0 °F 35% 29.97 in 10.0 mi West 6.9 mph - N/A   Clear
7:54 PM 48.0 °F - 34.0 °F 58% 29.99 in 10.0 mi WNW 5.8 mph - N/A   Clear
8:54 PM 48.9 °F - 32.0 °F 52% 30.01 in 10.0 mi WNW 9.2 mph - N/A   Clear
9:54 PM 46.9 °F - 33.1 °F 59% 30.02 in 10.0 mi WNW 10.4 mph - N/A   Clear
10:54 PM 44.1 °F 40.8 °F 34.0 °F 68% 30.04 in 10.0 mi West 5.8 mph - N/A   Clear
11:54 PM 44.1 °F 42.5 °F 34.0 °F 68% 30.04 in 10.0 mi WNW 3.5 mph - N/A   Clear